This is the latest recevied weather packets stored in our database for station/object CX2SA-13. If no packets are shown the sender has not sent any weather packets the latest 10 day(s).
| Time | Temp. | Humidity | Pressure | Rain* | Wind** | Luminosity | Snow |
|---|---|---|---|---|---|---|---|
| 1778172285 | 17.78° C | 96% | 997.6 hPa | 35.56 mm | - | - | - |
| 1778171385 | 17.78° C | 97% | 998.9 hPa | 35.56 mm | - | - | - |
| 1778170484 | 17.78° C | 97% | 998.6 hPa | 35.56 mm | - | - | - |
| 1778169585 | 17.78° C | 98% | 997.2 hPa | 35.31 mm | - | - | - |
| 1778168686 | 17.78° C | 98% | 998.9 hPa | 34.29 mm | - | - | - |
| 1778167784 | 17.78° C | 98% | 999.3 hPa | 33.02 mm | - | - | - |
| 1778166885 | 17.78° C | 98% | 1000 hPa | 30.48 mm | - | - | - |
| 1778165986 | 17.78° C | 98% | 998.6 hPa | 29.72 mm | - | - | - |
| 1778165084 | 17.78° C | 98% | 997.6 hPa | 29.21 mm | - | - | - |
| 1778164185 | 17.78° C | 98% | 997.9 hPa | 28.45 mm | - | - | - |
| 1778163284 | 17.78° C | 98% | 997.2 hPa | 27.94 mm | - | - | - |
| 1778162384 | 17.78° C | 98% | 996.9 hPa | 27.94 mm | - | - | - |
| 1778161485 | 17.78° C | 98% | 998.9 hPa | 27.69 mm | - | - | - |
| 1778160584 | 17.78° C | 98% | 996.6 hPa | 27.18 mm | - | - | - |
| 1778159685 | 17.78° C | 98% | 997.9 hPa | 26.42 mm | - | - | - |
| 1778158785 | 17.78° C | 97% | 997.2 hPa | 22.61 mm | - | - | - |
| 1778157884 | 17.78° C | 97% | 997.6 hPa | 18.29 mm | - | - | - |
| 1778156985 | 17.78° C | 97% | 996.9 hPa | 16.51 mm | - | - | - |
| 1778156086 | 17.78° C | 97% | 997.2 hPa | 16.26 mm | - | - | - |
| 1778155184 | 18.33° C | 97% | 996.9 hPa | 13.97 mm | - | - | - |
| 1778154285 | 20° C | 96% | 997.2 hPa | 7.37 mm | - | - | - |
| 1778153386 | 24.44° C | 92% | 994.5 hPa | 1.27 mm | - | - | - |
| 1778152485 | 26.67° C | 81% | 995.2 hPa | 0 mm | - | - | - |
| 1778151585 | 26.67° C | 81% | 995.6 hPa | 0 mm | - | - | - |
| 1778150684 | 26.67° C | 81% | 995.2 hPa | 0 mm | - | - | - |
* Rain since midnight (hover to see other rain measurements)
** Current wind speed in m/s (hover to see current wind gust speed)